Location: Arbon
(43.0005°N, 0.7472°E)
Time: 07:40:27
(UTC+00:00)

Vanguard 1 - Pass Details

Date: 01 December 2020
Orbit: 648 x 3834 km, 34.3° (Epoch: 21 January)

Event Time Altitude Azimuth Distance (km) Brightness Sun altitude
Rises 06:56:51 0° 261° (W) 3,717 12.5 -2.8°
Reaches altitude 10° 06:59:04 10° 255° (WSW) 3,009 12.1 -2.4°
Maximum altitude 07:06:16 50° 182° (S) 2,007 11.9 -1.2°
Drops below altitude 10° 07:19:22 10° 113° (ESE) 5,326 16.0 0.8°
Sets 07:24:45 0° 110° (ESE) 6,837 16.5 1.6°
